Regional Weather Roundup
Issued by NWS

Home | Current Version | Previous Version | Graphics & Text | Print | Product List | Glossary On
Versions: 1 2 3 4 5 6 7 8 9 10 11 12 13 14 15 16 17 18 19 20 21 22 23 24 25 26 27 28 29 30 31 32 33 34 35 36 37 38 39 40 41 42 43 44 45 46 47 48 49 50
000
ASUS43 KMKX 310900
RWRWI

WISCONSIN REGIONAL WEATHER ROUNDUP
NATIONAL WEATHER SERVICE MILWAUKEE/SULLIVAN WI
400 AM CDT TUE MAY 31 2016

NOTE: "FAIR" INDICATES FEW OR NO CLOUDS BELOW 12,000 FEET WITH NO
SIGNIFICANT WEATHER AND/OR OBSTRUCTIONS TO VISIBILITY.

WIZ001-002-006>008-014>016-023>028-311000-
NORTHWEST WISCONSIN

CITY           SKY/WX    TMP DP  RH WIND       PRES   REMARKS
SUPERIOR ARPT  CLOUDY    45  42  89 NE15G26   30.01S
ASHLAND        CLEAR     47  43  86 NE6       30.01S
HAYWARD        CLOUDY    61  49  64 E10       29.95F
SIREN          CLOUDY    64  56  76 SE6       29.90F
CUMBERLAND     CLOUDY    63  52  67 SE9       29.92F
RICE LAKE      CLOUDY    67  53  60 SE10      29.94F
CHETEK         CLOUDY    66  56  70 S13G18    29.93F
LADYSMITH      MOCLDY    65  54  66 S8        29.98S
EAU CLAIRE     NOT AVBL
MENOMONIE      CLOUDY    65  56  74 E8        29.90F
NEW RICHMOND   CLOUDY    65  54  68 SE8       29.88F
OSCEOLA        MOCLDY    67  55  65 SE14G20   29.89F
$$

WIZ003>005-009-010-017-018-311000-
NORTH CENTRAL WISCONSIN

CITY           SKY/WX    TMP DP  RH WIND       PRES   REMARKS
MANITOWISH WTR NOT AVBL
ARBOR VITAE    CLOUDY    57  52  82 E5        30.02S
WOODRUFF       CLOUDY    57  52  82 E5        30.02S
RHINELANDER    CLOUDY    54  48  80 E12       30.04R
EAGLE RIVER      N/A     52  46  80 E8        30.03S
LAND O LAKES   CLOUDY    51  46  84 E6        30.05F
PHILLIPS       CLOUDY    58  49  72 SE5       29.99S
TOMAHAWK       CLOUDY    58  50  74 E8        30.02S
MEDFORD        CLOUDY    63  53  70 S7        30.00S
MERRILL        CLOUDY    59  53  78 SE7       30.03R
$$

WIZ029-030-035-036-043>047-311000-
CENTRAL WISCONSIN

CITY           SKY/WX    TMP DP  RH WIND       PRES   REMARKS
WAUSAU         CLOUDY    61  52  72 E10       30.01R
MOSINEE        CLOUDY    59  54  82 S6        30.02S
MARSHFIELD     CLOUDY    64  55  72 SW5       29.98F
STEVENS POINT  MOCLDY    62  52  70 SW5       30.02R
WAUPACA        CLOUDY    61  61  98 NE5       30.02S
WAUTOMA        CLOUDY   N/A N/A N/A NE3       30.01F
WISC RAPIDS    CLOUDY    65  55  70 W5        30.00F
CAMP DOUGLAS   NOT AVBL
$$

WIZ011>013-019>022-031-037>040-048>050-311000-
NORTHEAST WISCONSIN

CITY           SKY/WX    TMP DP  RH WIND       PRES   REMARKS
ANTIGO         CLOUDY    54  49  85 E7        30.05S
SHAWANO        CLOUDY    60  52  73 NE13      30.04S
OCONTO         CLOUDY    55  52  90 NE5       30.05R
STURGEON BAY   NOT AVBL
GREEN BAY      PTCLDY    59  54  83 NE16      30.03R
MANITOWOC      NOT AVBL
APPLETON       CLOUDY    63  55  77 NE12      30.01R
CLINTONVILLE   CLOUDY    59  52  77 CALM      30.03R
OSHKOSH        MOCLDY    65  57  75 W7        30.02R
$$

WIZ032>034-041-042-053>061-311000-
SOUTHWEST WISCONSIN

CITY           SKY/WX    TMP DP  RH WIND       PRES   REMARKS
LA CROSSE      CLOUDY    64  60  87 SE9       29.91S
SPARTA         CLOUDY    61  61  99 SE6       29.95F
VIROQUA        CLOUDY    61  60  96 E7        29.96F
BOSCOBEL       NOT AVBL
PRAIRIE DU CHI CLOUDY    61  60  96 CALM      29.95F
PLATTEVILLE    PTCLDY    64  61  89 NE7       29.97S
$$

WIZ056-057-062-063-064-067-068-311000-
SOUTH CENTRAL WISCONSIN

CITY           SKY/WX    TMP DP  RH WIND       PRES   REMARKS
REEDSBURG      MOCLDY    63  58  85 CALM      29.99F
BARABOO/DELLS  MOCLDY    65  54  68 CALM      30.00F
LONE ROCK      NOT AVBL
MINERAL POINT  MOCLDY    64  57  77 E7        29.97F
MADISON        CLOUDY    64  59  83 NE5       30.00S
MIDDLETON      CLOUDY    65  61  88 CALM      30.00F
WATERTOWN      LGT RAIN  64  58  83 NW5       30.02R
MONROE         CLOUDY    64  57  77 CALM      30.00R
JANESVILLE     CLOUDY    66  55  68 CALM      29.98S
$$

WIZ051-052-058>065-066-070>072-311000-
SOUTHEAST WISCONSIN

CITY           SKY/WX    TMP DP  RH WIND       PRES   REMARKS
MILWAUKEE      CLOUDY    63  56  78 SW3       29.99F
WAUKESHA       CLOUDY    63  54  72 SW8       30.03R
MILWAUKEE/TIMM CLOUDY    61  55  82 CALM      30.01S
RACINE         PTCLDY    62  55  77 CALM      30.00F
BURLINGTON     CLOUDY    61  57  88 N3        29.99S
KENOSHA        MOCLDY    61  55  81 CALM      29.99F
FOND DU LAC    LGT RAIN  64  56  75 W12       30.03R
SHEBOYGAN      MOCLDY    58  55  90 CALM      30.00R
WEST BEND      CLOUDY    55  55 100 CALM      30.00F
JUNEAU         CLOUDY    64  57  78 SW9G16    30.04R
$$

LSZ147-162-311000-
LAKE SUPERIOR

STATION/POSITION TIME  TEMP    WIND        PRES    WAVE
                       AIR SEA DIR/SP/G            HT/PER
                 (UTC) (F)     (DEG/KT/KT) (MB)    (FT/S)
W MID LAKE BUOY  0750   41 38   70/ 16/ 17 1018.6F   2/ 4
DEVILS ISLAND    0800   45      70/ 21/ 24 1017.9S
SAXON HARBOR     0800   51      70/ 13/ 15 1015.6R
$$

LMZ867-665-643>646-311000-
LAKE MICHIGAN

STATION/POSITION TIME  TEMP    WIND        PRES    WAVE
                       AIR SEA DIR/SP/G            HT/PER
                 (UTC) (F)     (DEG/KT/KT) (MB)    (FT/S)
CHAMBERS ISLAND  0800   54      10/ 18/ 20 1017.3
N MID LAKE BUOY  0750   51 49   10/ 16/ 17 1016.8R   2/ 3
NORTHPORT PIER   0800   54      10/  9/ 13 1017.6R
KEWAUNEE LAKESHO 0800   54      10/ 15/ 22 1016.1R
SHEBOYGAN LAKESH 0800   64     230/  6/  6 1015.8F
PORT WASHINGTON  0800   58     260/  3/  3 1016.6S
S MID LAKE BUOY  0750   60 56  120/  4/  6 1015.7R   0
KENOSHA   LAKESH 0800   65     180/  5/  7 1015.6F
$$

TC  - TEMPERATURE IN CELSIUS
VSB - VISIBILITY IN STATUTE MILES
WCI - WIND CHILL INDEX
HX  - HEAT INDEX





USA.gov is the U.S. government's official web portal to all federal, state and local government web resources and services.